Wheeling, WV

12:27 AM EDT on May 28, 2018 (GMT -0400)
Wheeling-Ohio County

Weather History for KHLG - December, 2012

Change the Weather History Date:

Friday, December 14, 2012

  Actual Average Record
Temperature  
Mean Temperature 40 °F 33 °F  
Max Temperature 50 °F 40 °F 67 °F (2015)
Min Temperature 30 °F 26 °F 2 °F (1942)
Degree Days  
Heating Degree Days 25 32  
Month to date heating degree days 292 417  
Since 1 July heating degree days 1517 1545  
Cooling Degree Days 0    
Month to date cooling degree days 0  
Year to date cooling degree days 996  
Moisture  
Dew Point 23 °F    
Average Humidity 56    
Maximum Humidity 72    
Minimum Humidity 39    
Precipitation  
Precipitation 0.00 in 0.07 in 1.70 in (1901)
Month to date precipitation 2.98 1.07  
Year to date precipitation 36.62  
Sea Level Pressure  
Sea Level Pressure 30.28 in    
Wind  
Wind Speed 6 mph (SSW)    
Max Wind Speed 12 mph    
Max Gust Speed 15 mph    
Visibility 10 miles    
Events      
T = Trace of Precipitation, MM = Missing Value Source: NWS Daily Summary

Daily Weather History Graph

Daily Weather History Graph

Search for Another Location

Airport or City:

Astronomy

Dec. 14, 2012 Rise Set
Actual Time 7:37 AM EST 4:57 PM EST
Civil Twilight 7:06 AM EST 5:28 PM EST
Nautical Twilight 6:32 AM EST 6:02 PM EST
Astronomical Twilight 5:59 AM EST 6:35 PM EST
Moon 8:40 AM EST (12/14) 6:48 PM EST (12/14)
Length of Visible Light 10h 21m
Length of Day
9h 20m
Waxing Crescent, 3% of the Moon is Illuminated
Dec 14
Waxing Crescent
Dec 20
First Quarter
Dec 28
Full
Jan 4
Last Quarter
Jan 11
New

Hourly Weather History & Observations

Time (EST) Temp. Windchill Dew Point Humidity Pressure Visibility Wind Dir Wind Speed Gust Speed Precip Events Conditions
12:53 AM 33.1 °F 26.1 °F 19.9 °F 59% 30.29 in 10.0 mi South 8.1 mph - N/A   Clear
1:53 AM 32.0 °F 24.8 °F 19.9 °F 61% 30.28 in 10.0 mi SSW 8.1 mph - N/A   Clear
2:53 AM 30.0 °F 25.2 °F 21.0 °F 69% 30.30 in 10.0 mi SW 4.6 mph - N/A   Clear
3:53 AM 30.9 °F 25.2 °F 21.0 °F 67% 30.30 in 10.0 mi SSW 5.8 mph - N/A   Clear
4:53 AM 30.9 °F 25.2 °F 21.0 °F 67% 30.30 in 10.0 mi South 5.8 mph - N/A   Clear
5:53 AM 30.9 °F 23.5 °F 21.0 °F 67% 30.31 in 10.0 mi SSW 8.1 mph - N/A   Clear
6:53 AM 30.0 °F 21.7 °F 21.0 °F 69% 30.32 in 10.0 mi South 9.2 mph - N/A   Clear
7:53 AM 30.0 °F 22.4 °F 21.9 °F 72% 30.31 in 10.0 mi South 8.1 mph - N/A   Clear
8:53 AM 32.0 °F 24.8 °F 24.1 °F 73% 30.32 in 10.0 mi SSW 8.1 mph - N/A   Clear
9:53 AM 36.0 °F 30.3 °F 25.0 °F 64% 30.33 in 10.0 mi SW 6.9 mph - N/A   Clear
10:53 AM 39.0 °F 34.0 °F 26.1 °F 60% 30.32 in 10.0 mi SW 6.9 mph - N/A   Clear
11:53 AM 42.1 °F 37.1 °F 27.0 °F 55% 30.31 in 10.0 mi SW 8.1 mph - N/A   Clear
12:53 PM 45.0 °F 39.7 °F 28.0 °F 52% 30.29 in 10.0 mi SSW 10.4 mph - N/A   Clear
1:53 PM 48.0 °F - 27.0 °F 44% 30.27 in 10.0 mi WSW 6.9 mph - N/A   Clear
2:53 PM 48.9 °F - 25.0 °F 39% 30.25 in 10.0 mi SW 9.2 mph - N/A   Clear
3:53 PM 48.9 °F - 24.1 °F 38% 30.25 in 10.0 mi SSW 4.6 mph - N/A   Clear
4:53 PM 45.0 °F 41.8 °F 25.0 °F 46% 30.26 in 10.0 mi SSW 5.8 mph - N/A   Clear
5:53 PM 45.0 °F 43.5 °F 24.1 °F 44% 30.25 in 10.0 mi South 3.5 mph - N/A   Clear
6:53 PM 43.0 °F 38.8 °F 24.1 °F 47% 30.26 in 10.0 mi South 6.9 mph - N/A   Clear
7:53 PM 42.1 °F 40.2 °F 24.1 °F 49% 30.26 in 10.0 mi South 3.5 mph - N/A   Clear
8:53 PM 41.0 °F 39.0 °F 23.0 °F 49% 30.27 in 10.0 mi South 3.5 mph - N/A   Clear
9:53 PM 39.9 °F 35.8 °F 23.0 °F 51% 30.27 in 10.0 mi South 5.8 mph - N/A   Clear
10:53 PM 39.9 °F 37.8 °F 21.9 °F 49% 30.25 in 10.0 mi ESE 3.5 mph - N/A   Clear
11:53 PM 35.1 °F 32.2 °F 23.0 °F 61% 30.24 in 10.0 mi SE 3.5 mph - N/A   Clear